Location: Bussy-Saint-Georges
(48.8410°N, 2.7017°E)
Time: 22:03:11
(UTC+00:00)

ATLAS 3B R/B - Pass Details

Date: 18 October 2021
Orbit: 989 x 1206 km, 63.8° (Epoch: 25 November)

Event Time Altitude Azimuth Distance (km) Brightness Sun altitude
Rises 20:34:59 0° 283° (WNW) 3,782 6.5 -36.1°
Reaches altitude 10° 20:38:08 10° 297° (WNW) 2,863 5.7 -36.6°
Maximum altitude 20:43:33 25° 350° (N) 2,050 4.4 -37.3°
Enters shadow 20:45:33 22° 15° (NNE) 2,204 4.4 -37.6°
